GW3591 Weather Reports


time (UTC)temp
C
wind
direction
speed
KPH
gust
KPH
rain 1hr
cm
rain 24hr
cm
rain mn
cm
humidity
%
barometer
mb
20260504070338 6 25 0.0 0.0 0.00 0.00 0.00 84 1017.4
20260504060247 5 345 0.0 0.0 0.00 0.00 0.00 87 1017.4
20260504050710 5 351 0.0 0.0 0.00 0.00 0.00 85 1017.6
20260504050206 5 351 0.0 0.0 0.00 0.00 0.00 85 1017.5
20260504045703 5 357 0.0 0.0 0.00 0.00 0.00 85 1017.4
20260504045157 5 357 0.0 0.0 0.00 0.00 0.00 85 1017.5
20260504044656 5 359 0.0 0.0 0.00 0.00 0.00 84 1017.5
20260504044153 5 0 0.0 0.0 0.00 0.00 0.00 83 1017.5
20260504043649 5 0 0.0 0.0 0.00 0.00 0.00 83 1017.6
20260504043147 5 359 0.0 0.0 0.00 0.00 0.00 83 1017.4
20260504042644 5 348 0.0 0.0 0.00 0.00 0.00 83 1017.6
20260504042141 6 9 0.0 0.0 0.00 0.00 0.00 83 1017.5
20260504041636 6 346 0.0 0.0 0.00 0.00 0.00 82 1017.6
20260504041133 6 21 0.0 0.0 0.00 0.00 0.00 81 1017.4
20260504040630 6 31 0.0 0.0 0.00 0.00 0.00 80 1017.4
20260504040127 6 54 0.0 0.0 0.00 0.00 0.00 78 1017.2
20260504035624 6 61 0.0 0.0 0.00 0.00 0.00 78 1017.4
20260504035120 6 61 0.0 0.0 0.00 0.00 0.00 76 1017.4
20260504034618 6 19 0.0 0.0 0.00 0.00 0.00 77 1017.2
20260504034115 6 21 0.0 0.0 0.00 0.00 0.00 80 1017.1
20260504033613 6 21 0.0 0.0 0.00 0.00 0.00 80 1017.1
20260504033110 6 21 0.0 0.0 0.00 0.00 0.00 79 1016.9
20260504032606 6 21 0.0 0.0 0.00 0.00 0.00 78 1017.0
20260504032104 7 21 0.0 0.0 0.00 0.00 0.00 77 1017.0
20260504031601 6 21 0.0 0.0 0.00 0.00 0.00 76 1016.9
20260504031056 6 21 0.0 0.0 0.00 0.00 0.00 77 1017.1
20260504030554 7 21 0.0 0.0 0.00 0.00 0.00 76 1016.9
20260504030050 7 24 0.0 0.0 0.00 0.00 0.00 76 1017.0
20260504025547 7 24 0.0 0.0 0.00 0.00 0.00 76 1017.2
20260504025044 7 24 0.0 0.0 0.00 0.00 0.00 76 1017.1
20260504024541 7 24 0.0 0.0 0.00 0.00 0.00 75 1017.0
20260504024038 7 24 0.0 0.0 0.00 0.00 0.00 74 1016.9
20260504023535 7 24 0.0 0.0 0.00 0.00 0.00 73 1017.0
20260504023031 7 24 0.0 0.0 0.00 0.00 0.00 72 1016.9
20260504022526 7 24 0.0 0.0 0.00 0.00 0.00 72 1016.8
20260504022023 7 24 0.0 0.0 0.00 0.00 0.00 72 1016.8
20260504021521 8 25 0.0 0.0 0.00 0.00 0.00 71 1016.9
20260504021017 8 25 0.0 0.0 0.00 0.00 0.00 70 1016.8
20260504020514 8 25 0.0 0.0 0.00 0.00 0.00 69 1017.0
20260504020011 8 25 0.0 0.0 0.00 0.00 0.00 69 1016.8
20260504015507 8 25 0.0 0.0 0.00 0.00 0.00 69 1017.0
20260504015003 8 26 0.0 0.0 0.00 0.00 0.00 68 1016.7
20260504014459 8 26 0.0 0.0 0.00 0.00 0.00 66 1016.7
20260504013956 8 36 0.0 0.0 0.00 0.00 0.00 66 1016.9
20260504013455 9 61 0.0 0.0 0.00 0.00 0.00 65 1016.7
20260504012950 9 70 0.0 0.0 0.00 0.00 0.00 62 1016.7
20260504012449 9 70 0.0 0.0 0.00 0.00 0.00 61 1016.7
20260504011946 10 70 0.0 0.0 0.00 0.00 0.00 59 1016.5
20260504011442 10 70 0.0 0.0 0.00 0.00 0.00 58 1016.3
20260504010938 10 70 0.0 0.0 0.00 0.00 0.00 58 1016.4
20260504010434 10 70 0.0 0.0 0.00 0.00 0.00 57 1016.4
20260504005931 11 70 0.0 0.0 0.00 0.00 0.00 56 1016.4
20260504005428 11 70 0.0 0.0 0.00 0.00 0.00 53 1016.5
20260504004925 11 70 0.0 0.0 0.00 0.00 0.00 57 1016.3
20260504004423 11 70 0.0 0.0 0.00 0.00 0.00 55 1016.1
20260504003919 11 70 0.0 0.0 0.00 0.00 0.00 52 1016.1
20260504003416 12 70 0.0 0.0 0.00 0.00 0.00 50 1016.1
20260504002913 12 70 0.0 0.0 0.00 0.00 0.00 47 1016.1
20260504002410 12 70 0.0 0.0 0.00 0.00 0.00 43 1016.0
20260504001907 13 70 0.0 0.0 0.00 0.00 0.00 43 1016.0
20260504001405 13 70 0.0 0.0 0.00 0.00 0.00 44 1015.9
20260504000901 13 119 0.0 0.0 0.00 0.00 0.00 42 1016.1
20260504000358 14 281 0.0 0.0 0.00 0.00 0.00 38 1015.8
20260503235855 14 307 0.0 0.0 0.00 0.00 0.00 41 1015.8
20260503235353 15 308 0.0 0.0 0.00 0.00 0.00 39 1015.7
20260503234850 15 261 0.0 0.0 0.00 0.00 0.00 36 1015.8
20260503234348 15 282 3.2 3.2 0.00 0.00 0.00 35 1015.6
20260503233845 15 117 0.0 0.0 0.00 0.00 0.00 34 1015.8
20260503233342 16 248 0.0 1.6 0.00 0.00 0.00 33 1015.6
20260503232838 16 287 0.0 1.6 0.00 0.00 0.00 33 1015.6
20260503232335 16 320 1.6 3.2 0.00 0.00 0.00 34 1015.5
20260503231827 16 1 1.6 3.2 0.00 0.00 0.00 33 1015.4
20260503231324 16 3 0.0 0.0 0.00 0.00 0.00 33 1015.4
20260503230820 16 295 4.8 4.8 0.00 0.00 0.00 32 1015.3
20260503230317 16 205 0.0 0.0 0.00 0.00 0.00 34 1015.4
20260503225815 16 266 1.6 3.2 0.00 0.00 0.00 33 1015.3
20260503225310 16 173 3.2 3.2 0.00 0.00 0.00 33 1015.4
20260503224807 16 285 0.0 0.0 0.00 0.00 0.00 32 1015.5
20260503224304 16 260 6.4 9.7 0.00 0.00 0.00 32 1015.5
20260503223802 16 309 3.2 3.2 0.00 0.00 0.00 32 1015.6
20260503223300 17 242 1.6 1.6 0.00 0.00 0.00 33 1015.5
20260503222755 17 260 1.6 3.2 0.00 0.00 0.00 32 1015.5
20260503222254 16 315 9.7 14.5 0.00 0.00 0.00 31 1015.4
20260503221752 16 236 3.2 3.2 0.00 0.00 0.00 31 1015.6
20260503221249 17 264 3.2 3.2 0.00 0.00 0.00 33 1015.4
20260503220746 17 212 8.0 11.3 0.00 0.00 0.00 30 1015.6
20260503220243 17 336 6.4 9.7 0.00 0.00 0.00 31 1015.8
20260503215739 17 266 3.2 4.8 0.00 0.00 0.00 30 1015.6
20260503215236 17 229 1.6 1.6 0.00 0.00 0.00 31 1015.4
20260503214735 17 311 4.8 6.4 0.00 0.00 0.00 30 1015.5
20260503214231 17 288 1.6 1.6 0.00 0.00 0.00 30 1015.3
20260503213729 17 285 6.4 9.7 0.00 0.00 0.00 30 1015.5
20260503213226 17 265 9.7 16.1 0.00 0.00 0.00 31 1015.4
20260503212723 17 295 3.2 4.8 0.00 0.00 0.00 30 1015.5
20260503212220 17 240 3.2 3.2 0.00 0.00 0.00 30 1015.4
20260503211718 16 230 3.2 6.4 0.00 0.00 0.00 30 1015.4
20260503211214 16 348 3.2 4.8 0.00 0.00 0.00 31 1015.7
20260503210709 17 193 8.0 16.1 0.00 0.00 0.00 30 1015.8
20260503210206 16 59 6.4 9.7 0.00 0.00 0.00 30 1015.4
20260503205656 17 304 3.2 4.8 0.00 0.00 0.00 30 1015.6
20260503205153 17 181 4.8 6.4 0.00 0.00 0.00 31 1015.5
20260503204649 17 209 4.8 6.4 0.00 0.00 0.00 29 1015.7
20260503204147 17 308 3.2 6.4 0.00 0.00 0.00 30 1015.7
20260503203644 17 243 6.4 6.4 0.00 0.00 0.00 30 1015.8
20260503203142 17 8 6.4 9.7 0.00 0.00 0.00 31 1015.9
20260503202638 17 215 3.2 4.8 0.00 0.00 0.00 31 1015.7
20260503202137 16 250 1.6 1.6 0.00 0.00 0.00 31 1015.7
20260503201634 16 69 0.0 1.6 0.00 0.00 0.00 32 1015.9
20260503201132 16 205 14.5 17.7 0.00 0.00 0.00 31 1015.7
20260503200627 16 200 4.8 9.7 0.00 0.00 0.00 31 1016.0
20260503200124 17 246 3.2 3.2 0.00 0.00 0.00 31 1015.8
20260503195621 17 313 6.4 11.3 0.00 0.00 0.00 30 1016.1
20260503195118 16 219 6.4 11.3 0.00 0.00 0.00 32 1016.4
20260503194615 16 254 3.2 3.2 0.00 0.00 0.00 32 1016.2
20260503194110 16 262 0.0 1.6 0.00 0.00 0.00 32 1016.4
20260503193607 17 329 3.2 4.8 0.00 0.00 0.00 32 1016.4
20260503193103 16 297 4.8 6.4 0.00 0.00 0.00 32 1016.4
20260503192559 16 208 16.1 29.0 0.00 0.00 0.00 32 1016.4
20260503192054 16 263 4.8 4.8 0.00 0.00 0.00 32 1016.5
20260503191551 16 354 8.0 11.3 0.00 0.00 0.00 34 1016.5
20260503191048 16 226 1.6 1.6 0.00 0.00 0.00 34 1016.7
20260503190539 15 259 4.8 4.8 0.00 0.00 0.00 34 1016.8
20260503190036 15 211 1.6 3.2 0.00 0.00 0.00 34 1016.7
20260503185532 15 294 3.2 4.8 0.00 0.00 0.00 35 1016.8
20260503185027 15 293 4.8 6.4 0.00 0.00 0.00 34 1017.1
20260503184523 15 205 6.4 11.3 0.00 0.00 0.00 34 1017.1
20260503184020 15 234 11.3 16.1 0.00 0.00 0.00 34 1017.2
20260503183517 15 136 8.0 12.9 0.00 0.00 0.00 34 1017.2
20260503183014 14 305 8.0 11.3 0.00 0.00 0.00 36 1017.2
20260503182512 15 285 3.2 4.8 0.00 0.00 0.00 36 1017.3
20260503182010 14 332 4.8 6.4 0.00 0.00 0.00 36 1017.3
20260503181507 13 321 1.6 3.2 0.00 0.00 0.00 37 1017.3
20260503181003 14 252 1.6 1.6 0.00 0.00 0.00 36 1017.5
20260503180500 14 230 0.0 1.6 0.00 0.00 0.00 36 1017.3
20260503175957 15 273 3.2 3.2 0.00 0.00 0.00 35 1017.2
20260503175455 13 291 3.2 4.8 0.00 0.00 0.00 38 1017.5
20260503174951 13 258 3.2 6.4 0.00 0.00 0.00 37 1017.5
20260503174449 13 295 12.9 16.1 0.00 0.00 0.00 36 1017.5
20260503173944 14 262 4.8 9.7 0.00 0.00 0.00 37 1017.7
20260503173440 14 260 6.4 9.7 0.00 0.00 0.00 36 1017.7
20260503172937 13 307 9.7 12.9 0.00 0.00 0.00 34 1017.5
20260503172435 13 350 0.0 1.6 0.00 0.00 0.00 35 1017.5
20260503171931 13 207 11.3 17.7 0.00 0.00 0.00 35 1017.4
20260503171427 13 6 1.6 3.2 0.00 0.00 0.00 36 1017.6
20260503170925 13 345 3.2 3.2 0.00 0.00 0.00 36 1017.7
20260503170421 13 158 6.4 12.9 0.00 0.00 0.00 36 1017.7
20260503150808 12 268 1.6 1.6 0.00 0.00 0.00 39 1018.3
20260503150303 11 20 1.6 1.6 0.00 0.00 0.00 39 1018.2
20260503140228 10 103 4.8 6.4 0.00 0.00 0.00 44 1018.6
20260503131158 8 190 4.8 6.4 0.00 0.00 0.00 50 1018.5
20260503130655 8 297 9.7 16.1 0.00 0.00 0.00 49 1018.5
20260503130153 8 329 3.2 4.8 0.00 0.00 0.00 52 1018.5
20260503120118 6 319 3.2 4.8 0.00 0.00 0.00 62 1018.3
20260503110545 5 59 0.0 1.6 0.00 0.00 0.00 71 1017.3
20260503090432 5 249 0.0 1.6 0.00 0.00 0.00 71 1015.9
20260503081358 5 327 3.2 4.8 0.00 0.00 0.00 73 1015.6
20260503080854 5 348 0.0 1.6 0.00 0.00 0.00 73 1015.5
20260503080347 5 358 3.2 3.2 0.00 0.00 0.00 73 1015.4
20260503072823 6 269 0.0 0.0 0.00 0.00 0.00 72 1015.2
20260503072320 6 274 3.2 3.2 0.00 0.00 0.00 72 1015.1
20260503071816 6 2 0.0 3.2 0.00 0.00 0.00 72 1015.1
20260503071314 6 39 1.6 3.2 0.00 0.00 0.00 71 1015.2
20260503070809 6 289 3.2 4.8 0.00 0.00 0.00 72 1014.9